This is the latest recevied weather packets stored in our database for station/object SP2ARK-10. If no packets are shown the sender has not sent any weather packets the latest 10 day(s).
| Time | Temp. | Humidity | Pressure | Rain* | Wind** | Luminosity | Snow |
|---|---|---|---|---|---|---|---|
| 1778016145 | 17.78° C | 70% | 1013.2 hPa | - | - | - | - |
| 1778015244 | 18.33° C | 70% | 1013.1 hPa | - | - | - | - |
| 1778014343 | 18.33° C | 69% | 1013.1 hPa | - | - | - | - |
| 1778013443 | 18.33° C | 70% | 1013.1 hPa | - | - | - | - |
| 1778012542 | 18.33° C | 69% | 1013.2 hPa | - | - | - | - |
| 1778011642 | 18.33° C | 68% | 1013.2 hPa | - | - | - | - |
| 1778010741 | 18.33° C | 69% | 1013.1 hPa | - | - | - | - |
| 1778009841 | 18.33° C | 68% | 1013.3 hPa | - | - | - | - |
| 1778008940 | 18.33° C | 68% | 1013.3 hPa | - | - | - | - |
| 1778008039 | 17.78° C | 68% | 1013.2 hPa | - | - | - | - |
| 1778007139 | 18.33° C | 68% | 1013.4 hPa | - | - | - | - |
| 1778006238 | 17.78° C | 69% | 1013.2 hPa | - | - | - | - |
| 1778005337 | 18.33° C | 68% | 1013 hPa | - | - | - | - |
| 1778004436 | 18.33° C | 68% | 1012.8 hPa | - | - | - | - |
| 1778003535 | 18.89° C | 67% | 1012.7 hPa | - | - | - | - |
| 1778002635 | 20° C | 67% | 1012.7 hPa | - | - | - | - |
| 1778001734 | 20° C | 68% | 1012.5 hPa | - | - | - | - |
| 1778000834 | 20.56° C | 68% | 1012.5 hPa | - | - | - | - |
| 1777999934 | 21.11° C | 67% | 1012.4 hPa | - | - | - | - |
| 1777999033 | 21.67° C | 68% | 1012.2 hPa | - | - | - | - |
| 1777998132 | 21.67° C | 69% | 1012.2 hPa | - | - | - | - |
| 1777997232 | 22.78° C | 70% | 1012.1 hPa | - | - | - | - |
| 1777996331 | 22.78° C | 71% | 1012.3 hPa | - | - | - | - |
| 1777995430 | 22.78° C | 72% | 1012.1 hPa | - | - | - | - |
| 1777994529 | 22.78° C | 72% | 1012.2 hPa | - | - | - | - |
* Rain since midnight (hover to see other rain measurements)
** Current wind speed in m/s (hover to see current wind gust speed)